H1 CPF 2 NER 2024 7 29 9 211 01 glonass146 H2 2216101 9146 54377 2024 7 29 0 0 0 2024 8 1 23 45 0 900 1 1 0 0 0 1 H9 10 0 60520 0.00000 0 9335952.426 14309344.860 18940724.125 10 0 60520 900.00000 0 9562360.557 16511210.184 16924386.200 10 0 60520 1800.00000 0 9914347.790 18424853.085 14579198.500 10 0 60520 2700.00000 0 10345805.278 20007637.243 11950602.860 10 0 60520 3600.00000 0 10804564.356 21228378.614 9089597.992 10 0 60520 4500.00000 0 11234768.701 22068473.951 6051753.529 10 0 60520 5400.00000 0 11579419.022 22522515.704 2896130.231 10 0 60520 6300.00000 0 11782981.998 22598366.783 -315872.631 10 0 60520 7200.00000 0 11793951.911 22316691.514 -3521719.696 10 0 60520 8100.00000 0 11567255.011 21709962.385 -6658967.427 10 0 60520 9000.00000 0 11066392.965 20820984.576 -9666492.379 10 0 60520 9900.00000 0 10265232.767 19701001.125 -12485694.471 10 0 60520 10800.00000 0 9149365.503 18407459.528 -15061650.442 10 0 60520 11700.00000 0 7716974.814 17001535.160 -17344193.792 10 0 60520 12600.00000 0 5979176.993 15545517.141 -19288899.164 10 0 60520 13500.00000 0 3959817.246 14100167.995 -20857951.378 10 0 60520 14400.00000 0 1694729.914 12722169.190 -22020881.970 10 0 60520 15300.00000 0 -769506.775 11461760.631 -22755158.971 10 0 60520 16200.00000 0 -3377269.472 10360673.473 -23046618.946 10 0 60520 17100.00000 0 -6065971.056 9450442.739 -22889733.559 10 0 60520 18000.00000 0 -8768437.639 8751169.806 -22287706.296 10 0 60520 18900.00000 0 -11415482.183 8270785.475 -21252398.391 10 0 60520 19800.00000 0 -13938567.683 8004843.023 -19804086.248 10 0 60520 20700.00000 0 -16272449.373 7936848.246 -17971055.874 10 0 60520 21600.00000 0 -18357686.549 8039110.819 -15789042.890 10 0 60520 22500.00000 0 -20142920.297 8274079.522 -13300529.533 10 0 60520 23400.00000 0 -21586823.296 8596103.633 -10553912.764 10 0 60520 24300.00000 0 -22659641.760 8953545.068 -7602559.940 10 0 60520 25200.00000 0 -23344266.664 9291151.345 -4503770.597 10 0 60520 26100.00000 0 -23636791.062 9552588.716 -1317664.667 10 0 60520 27000.00000 0 -23546531.821 9683028.289 1893981.296 10 0 60520 27900.00000 0 -23095516.290 9631676.029 5068927.399 10 0 60520 28800.00000 0 -22317456.711 9354140.028 8145670.250 10 0 60520 29700.00000 0 -21256256.279 8814535.460 11064626.501 10 0 60520 30600.00000 0 -19964110.035 7987238.687 13769277.747 10 0 60520 31500.00000 0 -18499280.383 6858216.725 16207255.279 10 0 60520 32400.00000 0 -16923640.153 5425875.928 18331344.587 10 0 60520 33300.00000 0 -15300085.480 3701393.618 20100391.115 10 0 60520 34200.00000 0 -13689925.916 1708517.779 21480090.664 10 0 60520 35100.00000 0 -12150359.845 -517158.316 22443649.994 10 0 60520 36000.00000 0 -10732139.646 -2929418.103 22972305.515 10 0 60520 36900.00000 0 -9477523.188 -5473091.521 23055690.333 10 0 60520 37800.00000 0 -8418596.454 -8086105.361 22692042.559 10 0 60520 38700.00000 0 -7576036.904 -10701831.165 21888250.404 10 0 60520 39600.00000 0 -6958369.135 -13251635.101 20659732.380 10 0 60520 40500.00000 0 -6561744.158 -15667525.534 19030153.774 10 0 60520 41400.00000 0 -6370251.998 -17884789.481 17030983.469 10 0 60520 42300.00000 0 -6356755.095 -19844508.877 14700898.246 10 0 60520 43200.00000 0 -6484208.137 -21495852.014 12085044.652 10 0 60520 44100.00000 0 -6707409.286 -22798044.195 9234171.521 10 0 60520 45000.00000 0 -6975109.230 -23721934.515 6203649.089 10 0 60520 45900.00000 0 -7232388.888 -24251092.246 3052393.330 10 0 60520 46800.00000 0 -7423204.710 -24382385.853 -158283.610 10 0 60520 47700.00000 0 -7492992.831 -24126019.432 -3365873.935 10 0 60520 48600.00000 0 -7391220.403 -23505024.469 -6507901.432 10 0 60520 49500.00000 0 -7073774.321 -22554228.042 -9523150.296 10 0 60520 50400.00000 0 -6505084.259 -21318741.154 -12352870.173 10 0 60520 51300.00000 0 -5659888.256 -19852031.427 -14941932.592 10 0 60520 52200.00000 0 -4524564.335 -18213662.250 -17239914.997 10 0 60520 53100.00000 0 -3097970.336 -16466794.653 -19202090.249 10 0 60520 54000.00000 0 -1391755.236 -14675558.106 -20790301.685 10 0 60520 54900.00000 0 569872.117 -12902401.748 -21973706.477 10 0 60520 55800.00000 0 2750907.791 -11205537.974 -22729372.860 10 0 60520 56700.00000 0 5104819.348 -9636585.946 -23042720.099 10 0 60520 57600.00000 0 7576261.364 -8238513.597 -22907793.291 10 0 60520 58500.00000 0 10103168.195 -7043963.718 -22327368.477 10 0 60520 59400.00000 0 12619136.588 -6074033.071 -21312886.922 10 0 60520 60300.00000 0 15055998.840 -5337554.094 -19884220.704 10 0 60520 61200.00000 0 17346479.360 -4830907.482 -18069274.960 10 0 60520 62100.00000 0 19426824.283 -4538371.455 -15903435.225 10 0 60520 63000.00000 0 21239295.088 -4432991.052 -13428871.121 10 0 60520 63900.00000 0 22734423.008 -4477928.988 -10693710.417 10 0 60520 64800.00000 0 23872931.213 -4628239.572 -7751099.808 10 0 60520 65700.00000 0 24627245.650 -4832989.610 -4658170.865 10 0 60520 66600.00000 0 24982532.745 -5037635.900 -1474931.402 10 0 60520 67500.00000 0 24937221.883 -5186558.375 1736896.213 10 0 60520 68400.00000 0 24502992.130 -5225641.734 4915067.376 10 0 60520 69300.00000 0 23704224.848 -5104796.555 7998015.254 10 0 60520 70200.00000 0 22576946.053 -4780313.673 10926035.628 10 0 60520 71100.00000 0 21167303.339 -4216952.770 13642434.188 10 0 60520 72000.00000 0 19529641.350 -3389677.287 16094614.736 10 0 60520 72900.00000 0 17724256.097 -2284962.599 18235088.101 10 0 60520 73800.00000 0 15814921.457 -901622.103 20022383.195 10 0 60520 74700.00000 0 13866290.332 748884.228 21421843.463 10 0 60520 75600.00000 0 11941277.864 2642672.949 22406294.206 10 0 60520 76500.00000 0 10098534.666 4744184.230 22956568.488 10 0 60520 77400.00000 0 8390114.308 7007423.698 23061881.824 10 0 60520 78300.00000 0 6859431.245 9377649.474 22720048.378 10 0 60520 79200.00000 0 5539593.544 11793436.424 21937534.116 10 0 60520 80100.00000 0 4452179.501 14189033.851 20729345.044 10 0 60520 81000.00000 0 3606509.007 16496920.406 19118751.608 10 0 60520 81900.00000 0 2999440.275 18650451.322 17136853.180 10 0 60520 82800.00000 0 2615700.705 20586488.607 14821989.584 10 0 60520 83700.00000 0 2428738.449 22247904.873 12219009.649 10 0 60520 84600.00000 0 2402059.229 23585856.039 9378409.696 10 0 60520 85500.00000 0 2490992.323 24561727.158 6355357.791 10 0 60521 0.00000 0 2644811.136 25148668.833 3208622.533 10 0 60521 900.00000 0 2809118.356 25332658.798 -574.529 10 0 60521 1800.00000 0 2928393.725 25113042.193 -3209755.766 10 0 60521 2700.00000 0 2948595.558 24502527.881 -6356415.057 10 0 60521 3600.00000 0 2819704.006 23526639.384 -9379246.820 10 0 60521 4500.00000 0 2498096.588 22222643.683 -12219352.786 10 0 60521 5400.00000 0 1948653.472 20638003.033 -14821401.367 10 0 60521 6300.00000 0 1146501.586 18828415.499 -17134715.765 10 0 60521 7200.00000 0 78322.138 16855527.407 -19114268.616 10 0 60521 8100.00000 0 -1256835.024 14784414.818 -20721563.114 10 0 60521 9000.00000 0 -2847265.663 12680940.643 -21925383.195 10 0 60521 9900.00000 0 -4668866.747 10609099.023 -22702398.242 10 0 60521 10800.00000 0 -6685923.122 8628458.602 -23037610.959 10 0 60521 11700.00000 0 -8852392.495 6791811.703 -22924640.382 10 0 60521 12600.00000 0 -11113634.889 5143127.243 -22365835.323 10 0 60521 13500.00000 0 -13408514.250 3715891.961 -21372216.965 10 0 60521 14400.00000 0 -15671784.286 2531907.822 -19963252.574 10 0 60521 15300.00000 0 -17836658.949 1600594.085 -18166465.561 10 0 60521 16200.00000 0 -19837460.393 918821.114 -16016890.153 10 0 60521 17100.00000 0 -21612234.204 471280.662 -13556381.832 10 0 60521 18000.00000 0 -23105223.206 231374.891 -10832797.397 10 0 60521 18900.00000 0 -24269097.220 162584.745 -7899060.901 10 0 60521 19800.00000 0 -25066846.484 220258.347 -4812133.810 10 0 60521 20700.00000 0 -25473260.533 353742.684 -1631909.551 10 0 60521 21600.00000 0 -25475931.751 508767.731 1579946.093 10 0 60521 22500.00000 0 -25075742.650 629981.805 4761186.324 10 0 60521 23400.00000 0 -24286817.432 663530.923 7850183.500 10 0 60521 24300.00000 0 -23135940.632 559573.326 10787115.247 10 0 60521 25200.00000 0 -21661467.651 274623.277 13515114.116 10 0 60521 26100.00000 0 -19911772.956 -226374.426 15981359.153 10 0 60521 27000.00000 0 -17943300.581 -968326.476 18138089.164 10 0 60521 27900.00000 0 -15818297.776 -1964701.991 19943518.961 10 0 60521 28800.00000 0 -13602325.516 -3216726.938 21362641.803 10 0 60521 29700.00000 0 -11361648.488 -4713096.705 22367903.351 10 0 60521 30600.00000 0 -9160611.966 -6430220.177 22939734.777 10 0 60521 31500.00000 0 -7059113.492 -8332986.813 23066935.049 10 0 60521 32400.00000 0 -5110273.327 -10376026.690 22746895.045 10 0 60521 33300.00000 0 -3358399.575 -12505413.204 21985658.747 10 0 60521 34200.00000 0 -1837331.965 -14660739.550 20797819.557 10 0 60521 35100.00000 0 -569232.826 -16777484.466 19206252.632 10 0 60521 36000.00000 0 436124.463 -18789570.275 17241687.021 10 0 60521 36900.00000 0 1181539.733 -20632007.609 14942124.456 10 0 60521 37800.00000 0 1682035.061 -22243517.015 12352114.578 10 0 60521 38700.00000 0 1963983.062 -23569017.796 9521899.427 10 0 60521 39600.00000 0 2063750.924 -24561879.346 6506442.859 10 0 60521 40500.00000 0 2025917.381 -25185839.568 3364363.268 10 0 60521 41400.00000 0 1901138.262 -25416508.571 156790.286 10 0 60521 42300.00000 0 1743751.568 -25242392.986 -3053831.783 10 0 60521 43200.00000 0 1609224.565 -24665396.517 -6204969.649 10 0 60521 44100.00000 0 1551552.464 -23700774.499 -9235230.805 10 0 60521 45000.00000 0 1620720.572 -22376543.664 -12085571.994 10 0 60521 45900.00000 0 1860339.249 -20732371.606 -14700461.470 10 0 60521 46800.00000 0 2305553.604 -18817992.752 -17028971.140 10 0 60521 47700.00000 0 2981318.015 -16691217.886 -19025776.242 10 0 60521 48600.00000 0 3901109.810 -14415621.503 -20652042.453 10 0 60521 49500.00000 0 5066137.513 -12058004.744 -21876182.828 10 0 60521 50400.00000 0 6465077.782 -9685740.946 -22674469.894 10 0 60521 51300.00000 0 8074352.582 -7364115.340 -23031491.392 10 0 60521 52200.00000 0 9858935.143 -5153770.225 -22940441.483 10 0 60521 53100.00000 0 11773650.858 -3108362.032 -22403242.523 10 0 60521 54000.00000 0 13764918.496 -1272527.270 -21430495.970 10 0 60521 54900.00000 0 15772858.629 319759.016 -20041264.236 10 0 60521 55800.00000 0 17733680.925 1646365.444 -18262688.541 10 0 60521 56700.00000 0 19582250.401 2697679.815 -16129450.907 10 0 60521 57600.00000 0 21254725.409 3476751.989 -13683091.305 10 0 60521 58500.00000 0 22691157.294 3998900.464 -10971193.704 10 0 60521 59400.00000 0 23837943.390 4290801.460 -8046457.170 10 0 60521 60300.00000 0 24650031.333 4389100.849 -4965670.265 10 0 60521 61200.00000 0 25092783.123 4338609.071 -1788608.843 10 0 60521 62100.00000 0 25143421.712 4190156.422 1423121.359 10 0 60521 63000.00000 0 24792000.357 3998200.087 4607274.971 10 0 60521 63900.00000 0 24041854.910 3818284.316 7702167.187 10 0 60521 64800.00000 0 22909520.707 3704461.116 10647861.036 10 0 60521 65700.00000 0 21424117.907 3706780.083 13387319.287 10 0 60521 66600.00000 0 19626231.080 3868952.988 15867499.329 10 0 60521 67500.00000 0 17566329.591 4226291.189 18040370.714 10 0 60521 68400.00000 0 15302794.078 4804002.531 19863836.583 10 0 60521 69300.00000 0 12899630.394 5615919.430 21302542.052 10 0 60521 70200.00000 0 10423965.001 6663711.982 22328554.793 10 0 60521 71100.00000 0 7943424.621 7936620.001 22921905.303 10 0 60521 72000.00000 0 5523507.665 9411716.505 23070976.776 10 0 60521 72900.00000 0 3225055.247 11054693.325 22772737.083 10 0 60521 73800.00000 0 1101925.634 12821137.992 22032808.005 10 0 60521 74700.00000 0 -801032.202 14658250.635 20865369.607 10 0 60521 75600.00000 0 -2449622.296 16506931.204 19292900.529 10 0 60521 76500.00000 0 -3821494.638 18304151.642 17345757.830 10 0 60521 77400.00000 0 -4906837.642 19985515.207 15061603.082 10 0 60521 78300.00000 0 -5708541.136 21487896.730 12484684.370 10 0 60521 79200.00000 0 -6241822.856 22752053.508 9664986.838 10 0 60521 80100.00000 0 -6533333.956 23725096.978 6657267.350 10 0 60521 81000.00000 0 -6619781.186 24362720.545 3519991.481 10 0 60521 81900.00000 0 -6546124.058 24631088.621 314193.431 10 0 60521 82800.00000 0 -6363423.753 24508305.886 -2897718.493 10 0 60521 83700.00000 0 -6126435.660 23985403.290 -6053186.721 10 0 60521 84600.00000 0 -5891048.744 23066797.852 -9090734.576 10 0 60521 85500.00000 0 -5711681.739 21770205.660 -11951176.388 10 0 60522 0.00000 0 -5638748.152 20126011.130 -14578782.374 10 0 60522 900.00000 0 -5716299.130 18176117.693 -16922375.693 10 0 60522 1800.00000 0 -5979945.636 15972330.551 -18936335.763 10 0 60522 2700.00000 0 -6455149.038 13574336.776 -20581492.307 10 0 60522 3600.00000 0 -7155953.538 11047370.090 -21825888.820 10 0 60522 4500.00000 0 -8084214.597 8459657.902 -22645402.055 10 0 60522 5400.00000 0 -9229356.280 5879757.929 -23024205.639 10 0 60522 6300.00000 0 -10568667.844 3373895.867 -22955069.427 10 0 60522 7200.00000 0 -12068126.967 1003415.076 -22439489.582 10 0 60522 8100.00000 0 -13683714.768 -1177555.937 -21487647.755 10 0 60522 9000.00000 0 -15363167.120 -3124122.086 -20118201.041 10 0 60522 9900.00000 0 -17048088.465 -4802243.591 -18357907.627 10 0 60522 10800.00000 0 -18676339.286 -6189895.437 -16241096.121 10 0 60522 11700.00000 0 -20184597.078 -7277718.176 -13808989.449 10 0 60522 12600.00000 0 -21510983.517 -8069135.179 -11108896.946 10 0 60522 13500.00000 0 -22597647.901 -8579933.829 -8193290.662 10 0 60522 14400.00000 0 -23393198.983 -8837330.487 -5118784.049 10 0 60522 15300.00000 0 -23854883.695 -8878560.498 -1945033.033 10 0 60522 16200.00000 0 -23950422.010 -8749054.241 1266419.185 10 0 60522 17100.00000 0 -23659421.651 -8500277.237 4453331.277 10 0 60522 18000.00000 0 -22974313.898 -8187326.177 7553963.996 10 0 60522 18900.00000 0 -21900771.747 -7866382.565 10508268.570 10 0 60522 19800.00000 0 -20457593.184 -7592131.374 13259040.809 10 0 60522 20700.00000 0 -18676054.405 -7415253.263 15753019.217 10 0 60522 21600.00000 0 -16598759.727 -7380095.605 17941906.732 10 0 60522 22500.00000 0 -14278035.429 -7522619.983 19783297.236 10 0 60522 23400.00000 0 -11773933.531 -7868712.227 21241489.815 10 0 60522 24300.00000 0 -9151927.258 -8432926.004 22288175.905 10 0 60522 25200.00000 0 -6480392.523 -9217713.115 22902986.686 10 0 60522 26100.00000 0 -3827978.461 -10213173.577 23073890.525 10 0 60522 27000.00000 0 -1260974.601 -11397337.227 22797432.845 10 0 60522 27900.00000 0 1159217.491 -12736966.654 22078813.409 10 0 60522 28800.00000 0 3378404.322 -14188849.699 20931798.790 10 0 60522 29700.00000 0 5351616.816 -15701529.354 19378470.631 10 0 60522 30600.00000 0 7044739.642 -17217400.451 17448813.205 10 0 60522 31500.00000 0 8435685.821 -18675086.848 15180146.814 10 0 60522 32400.00000 0 9515067.640 -20012000.526 12616416.544 10 0 60522 33300.00000 0 10286335.613 -21166975.765 9807348.886 10 0 60522 34200.00000 0 10765379.483 -22082867.630 6807491.647 10 0 60522 35100.00000 0 10979607.910 -22709004.862 3675155.247 10 0 60522 36000.00000 0 10966545.716 -23003392.735 471275.893 10 0 60522 36900.00000 0 10772008.240 -22934571.571 -2741776.828 10 0 60522 37800.00000 0 10447930.691 -22483050.843 -5901423.883 10 0 60522 38700.00000 0 10049945.368 -21642256.697 -8946107.308 10 0 60522 39600.00000 0 9634810.685 -20418951.404 -11816501.912 10 0 60522 40500.00000 0 9257802.387 -18833105.835 -14456683.176 10 0 60522 41400.00000 0 8970179.049 -16917229.446 -16815227.338 10 0 60522 42300.00000 0 8816830.637 -14715185.560 -18846221.114 10 0 60522 43200.00000 0 8834210.941 -12280541.598 -20510160.695 10 0 60522 44100.00000 0 9048642.269 -9674523.645 -21774722.145 10 0 60522 45000.00000 0 9475064.668 -6963661.413 -22615388.242 10 0 60522 45900.00000 0 10116282.713 -4217222.377 -23015919.908 10 0 60522 46800.00000 0 10962741.582 -1504542.496 -22968663.711 10 0 60522 47700.00000 0 11992841.536 1107635.193 -22474690.236 10 0 60522 48600.00000 0 13173777.075 3557703.544 -21543761.558 10 0 60522 49500.00000 0 14462864.952 5791510.743 -20194129.311 10 0 60522 50400.00000 0 15809304.622 7764360.764 -18452168.130 10 0 60522 51300.00000 0 17156296.701 9442613.121 -16351852.310 10 0 60522 52200.00000 0 18443430.097 10804817.167 -13934086.440 10 0 60522 53100.00000 0 19609237.323 11842335.761 -11245903.513 10 0 60522 54000.00000 0 20593810.680 12559434.558 -8339546.449 10 0 60522 54900.00000 0 21341369.567 12972835.505 -5271451.084 10 0 60522 55800.00000 0 21802671.375 13110755.413 -2101150.575 10 0 60522 56700.00000 0 21937165.142 13011471.867 1109877.513 10 0 60522 57600.00000 0 21714797.992 12721478.279 4299399.147 10 0 60522 58500.00000 0 21117398.957 12293306.813 7405623.952 10 0 60522 59400.00000 0 20139582.501 11783111.466 10368394.615 10 0 60522 60300.00000 0 18789134.005 11248113.328 13130343.119 10 0 60522 61200.00000 0 17086860.991 10744015.424 15637992.027 10 0 60522 62100.00000 0 15065915.888 10322495.614 17842780.367 10 0 60522 63000.00000 0 12770617.852 10028882.446 19701995.200 10 0 60522 63900.00000 0 10254821.674 9900111.221 21179591.724 10 0 60522 64800.00000 0 7579900.321 9963045.745 22246886.940 10 0 60522 65700.00000 0 4812423.287 10233236.159 22883114.145 10 0 60522 66600.00000 0 2021625.538 10714165.255 23075827.896 10 0 60522 67500.00000 0 -723229.747 11397015.586 22821151.717 10 0 60522 68400.00000 0 -3355486.828 12260968.243 22123863.404 10 0 60522 69300.00000 0 -5813623.513 13274022.227 20997315.553 10 0 60522 70200.00000 0 -8043563.954 14394301.704 19463191.802 10 0 60522 71100.00000 0 -10000682.776 15571798.008 17551102.132 10 0 60522 72000.00000 0 -11651417.488 16750474.838 15298023.633 10 0 60522 72900.00000 0 -12974422.005 17870649.433 12747596.107 10 0 60522 73800.00000 0 -13961212.966 18871550.398 9949284.838 10 0 60522 74700.00000 0 -14616281.449 19693944.707 6957425.851 10 0 60522 75600.00000 0 -14956665.180 20282722.808 3830171.591 10 0 60522 76500.00000 0 -15010999.110 20589331.900 628357.401 10 0 60522 77400.00000 0 -14818084.513 20573953.274 -2585688.716 10 0 60522 78300.00000 0 -14425037.503 20207330.111 -5749369.110 10 0 60522 79200.00000 0 -13885096.022 19472166.710 -8801047.288 10 0 60522 80100.00000 0 -13255179.211 18364038.346 -11681261.166 10 0 60522 81000.00000 0 -12593303.809 16891771.749 -14333893.729 10 0 60522 81900.00000 0 -11955968.392 15077278.974 -16707277.002 10 0 60522 82800.00000 0 -11395617.562 12954850.737 -18755206.729 10 0 60522 83700.00000 0 -10958294.601 10569938.477 -20437847.254 10 0 60522 84600.00000 0 -10681582.748 7977476.071 -21722508.624 10 0 60522 85500.00000 0 -10592922.658 5239811.616 -22584280.756 10 0 60523 0.00000 0 -10708377.208 2424336.237 -23006512.669 10 0 60523 900.00000 0 -11031895.662 -399092.396 -22981128.225 10 0 60523 1800.00000 0 -11555107.485 -3160820.550 -22508772.559 10 0 60523 2700.00000 0 -12257653.936 -5794056.870 -21598787.997 10 0 60523 3600.00000 0 -13108042.544 -8237404.877 -20269020.183 10 0 60523 4500.00000 0 -14064987.592 -10437166.512 -18545459.315 10 0 60523 5400.00000 0 -15079179.400 -12349321.833 -16461724.151 10 0 60523 6300.00000 0 -16095407.282 -13941104.095 -14058399.427 10 0 60523 7200.00000 0 -17054946.341 -15192106.407 -11382240.036 10 0 60523 8100.00000 0 -17898107.364 -16094875.940 -8485257.814 10 0 60523 9000.00000 0 -18566842.484 -16654973.018 -5423708.887 10 0 60523 9900.00000 0 -19007296.997 -16890494.788 -2257001.423 10 0 60523 10800.00000 0 -19172200.265 -16831085.401 953454.976 10 0 60523 11700.00000 0 -19022995.447 -16516475.928 4145436.013 10 0 60523 12600.00000 0 -18531618.851 -15994616.657 7257102.714 10 0 60523 13500.00000 0 -17681854.460 -15319481.158 10228191.850 10 0 60523 14400.00000 0 -16470206.855 -14548634.876 13001174.239 10 0 60523 15300.00000 0 -14906255.832 -13740670.536 15522359.143 10 0 60523 16200.00000 0 -13012477.454 -12952617.843 17742924.235 10 0 60523 17100.00000 0 -10823538.190 -12237435.771 19619852.124 10 0 60523 18000.00000 0 -8385090.504 -11641692.096 21116756.243 10 0 60523 18900.00000 0 -5752118.574 -11203526.943 22204580.973 10 0 60523 19800.00000 0 -2986901.224 -10950985.277 22862163.187 10 0 60523 20700.00000 0 -156674.836 -10900788.099 23076644.734 10 0 60523 21600.00000 0 2668908.703 -11057594.011 22843727.978 10 0 60523 22500.00000 0 5420425.410 -11413782.677 22167769.136 10 0 60523 23400.00000 0 8031315.905 -11949770.195 21061706.892 10 0 60523 24300.00000 0 10440407.322 -12634844.381 19546826.621 10 0 60523 25200.00000 0 12594216.577 -13428486.294 17652363.436 10 0 60523 26100.00000 0 14448939.700 -14282123.874 15414950.311 10 0 60523 27000.00000 0 15972044.485 -15141245.141 12877920.489 10 0 60523 27900.00000 0 17143399.802 -15947782.880 10090476.407 10 0 60523 28800.00000 0 17955893.928 -16642670.672 7106740.277 10 0 60523 29700.00000 0 18415515.589 -17168462.289 3984704.170 10 0 60523 30600.00000 0 18540893.953 -17471903.130 785099.863 10 0 60523 31500.00000 0 18362316.805 -17506343.815 -2429789.175 10 0 60523 32400.00000 0 17920268.510 -17233892.303 -5597349.757 10 0 60523 33300.00000 0 17263549.988 -16627211.703 -8655869.995 10 0 60523 34200.00000 0 16447061.038 -15670885.908 -11545754.022 10 0 60523 35100.00000 0 15529339.902 -14362293.534 -14210695.321 10 0 60523 36000.00000 0 14569965.426 -12711951.749 -16598784.556 10 0 60523 36900.00000 0 13626932.979 -10743314.266 -18663529.141 10 0 60523 37800.00000 0 12754116.260 -8492031.130 -20364763.964 10 0 60523 38700.00000 0 11998923.126 -6004700.887 -21669435.135 10 0 60523 39600.00000 0 11400244.979 -3337167.285 -22552241.432 10 0 60523 40500.00000 0 10986786.378 -552431.763 -22996121.346 10 0 60523 41400.00000 0 10775844.981 2281730.951 -22992576.809 10 0 60523 42300.00000 0 10772592.581 5095354.573 -22541828.124 10 0 60523 43200.00000 0 10969886.520 7818952.835 -21652797.973 10 0 60523 44100.00000 0 11348618.257 10386169.999 -20342925.719 10 0 60523 45000.00000 0 11878583.141 12736300.570 -18637816.445 10 0 60523 45900.00000 0 12519833.572 14816574.323 -16570732.329 10 0 60523 46800.00000 0 13224457.451 16584112.792 -14181936.831 10 0 60523 47700.00000 0 13938706.124 18007477.282 -11517904.954 10 0 60523 48600.00000 0 14605381.521 19067745.661 -8630415.296 10 0 60523 49500.00000 0 15166381.520 19759074.977 -5575541.769 10 0 60523 50400.00000 0 15565296.089 20088728.351 -2412564.763 10 0 60523 51300.00000 0 15749944.899 20076566.974 797177.101 10 0 60523 52200.00000 0 15674749.677 19754030.204 3991472.405 10 0 60523 53100.00000 0 15302841.683 19162647.987 7108436.763 10 0 60523 54000.00000 0 14607815.858 18352149.033 10087704.160 10 0 60523 54900.00000 0 13575058.046 17378244.809 12871587.251 10 0 60523 55800.00000 0 12202589.447 16300182.558 15406184.818 10 0 60523 56700.00000 0 10501392.544 15178169.838 17642415.769 10 0 60523 57600.00000 0 8495204.066 14070778.132 19536960.608 10 0 60523 58500.00000 0 6219782.569 13032433.676 21053093.061 10 0 60523 59400.00000 0 3721679.686 12111099.852 22161386.640 10 0 60523 60300.00000 0 1056564.410 11346247.492 22840283.198 10 0 60523 61200.00000 0 -1712831.867 10767197.503 23076512.876 10 0 60523 62100.00000 0 -4519066.290 10391904.908 22865357.435 10 0 60523 63000.00000 0 -7292535.921 10226235.288 22210751.585 10 0 60523 63900.00000 0 -9964125.497 10263764.328 21125219.643 10 0 60523 64800.00000 0 -12467843.175 10486109.629 19629647.738 10 0 60523 65700.00000 0 -14743335.963 10863781.842 17752894.622 10 0 60523 66600.00000 0 -16738180.835 11357520.452 15531247.191 10 0 60523 67500.00000 0 -18409856.352 11920059.089 13007729.791 10 0 60523 68400.00000 0 -19727312.393 12498246.843 10231279.382 10 0 60523 69300.00000 0 -20672071.853 13035436.587 7255801.549 10 0 60523 70200.00000 0 -21238817.614 13474039.491 4139125.082 10 0 60523 71100.00000 0 -21435439.525 13758137.234 941875.248 10 0 60523 72000.00000 0 -21282538.982 13836040.386 -2273711.935 10 0 60523 72900.00000 0 -20812411.807 13662683.255 -5445010.612 10 0 60523 73800.00000 0 -20067552.506 13201752.045 -8510236.298 10 0 60523 74700.00000 0 -19098743.584 12427454.348 -11409662.015 10 0 60523 75600.00000 0 -17962811.506 11325853.229 -14086794.268 10 0 60523 76500.00000 0 -16720145.197 9895707.767 -16489484.655 10 0 60523 77400.00000 0 -15432083.094 8148783.083 -18570954.274 10 0 60523 78300.00000 0 -14158280.242 6109615.652 -20290710.242 10 0 60523 79200.00000 0 -12954167.433 3814742.940 -21615336.041 10 0 60523 80100.00000 0 -11868610.161 1311429.243 -22519140.240 10 0 60523 81000.00000 0 -10941866.205 -1344059.089 -22984651.306 10 0 60523 81900.00000 0 -10203927.563 -4088556.995 -23002949.450 10 0 60523 82800.00000 0 -9673315.798 -6854394.692 -22573829.845 10 0 60523 83700.00000 0 -9356380.346 -9571982.538 -21705794.924 10 0 60523 84600.00000 0 -9247127.920 -12172479.233 -20415876.809 10 0 60523 85500.00000 0 -9327588.585 -14590432.609 -18729294.220 99